Location: Austin
(30.3000°N, 97.7500°W)
Time: 03:56:15
(UTC-05:00)

Resurs 1-3 - Pass Details

Date: 01 October 2024
Orbit: 619 x 621 km, 97.7° (Epoch: 06 October)

Event Time Altitude Azimuth Distance (km) Brightness Sun altitude
Exits shadow 20:23:06 15° 141° (SE) 1,648 5.3 -15.4°
Maximum altitude 20:26:18 42° 75° (ENE) 883 3.9 -16.1°
Drops below altitude 10° 20:30:23 10° 4° (N) 1,988 6.2 -17.0°
Sets 20:32:39 0° 358° (N) 2,897 7.1 -17.5°
